Terug naar catalogus

THOR ABLESTAR DEB

ActiefPO
NORAD 1425·DEBRIS·🇺🇸 United States

Gelanceerd Jun 24, 1965 vanaf Vandenberg Space Force Base

Loading…

Volgende Passages (komende 24 uur)

TLE

VersSource: Space-Track

Epoch: Sep 14, 2026, 13:24 UTC

1 01425U 65048C   26257.55885774  .00000025  00000-0  25401-4 0  9999
2 01425  89.8706 283.7949 0072682 328.8499 185.6354 13.48952514 12458

Volg THOR ABLESTAR DEB in realtime met AllMySat

Download on the App Store